GFSGBSN_prec_cthk_219.txt.gz
RH
37 37 34 32 33 36 37 38 35 34 32 31 35 34 34 30 24 15 11 9 11 17 20 29 41 54 63 65 46 35 27 24 21 17 13 12 14 17 18 15 15 18 17 16 17 14 16
33 33 32 31 32 32 33 32 31 29 29 31 30 38 40 43 34 25 17 13 10 9 14 24 28 40 48 43 45 51 40 31 24 28 23 21 16 14 17 19 17 15 16 16 17 17 15
29 31 32 32 32 32 30 28 27 25 24 22 22 28 41 46 46 38 27 18 13 10 9 12 26 30 34 31 28 33 47 42 39 28 29 27 26 25 24 21 19 19 20 20 18 18 18
21 24 27 28 28 28 26 25 24 23 23 20 20 20 30 40 47 44 36 27 19 14 11 10 11 23 28 25 17 22 35 35 40 43 38 28 33 34 28 23 20 21 21 23 18 19 20
16 15 16 19 20 22 23 22 21 20 18 19 19 23 22 43 48 46 39 32 25 19 15 12 12 15 19 17 15 11 26 33 29 33 37 41 38 34 35 35 36 25 25 20 18 16 18
17 16 16 17 20 21 20 19 20 19 19 20 19 27 30 44 52 52 47 40 30 25 19 17 15 29 15 19 16 12 17 34 35 34 35 31 38 40 35 35 38 35 30 27 24 18 20
22 22 24 24 22 23 23 24 25 29 30 29 25 46 55 53 57 58 53 41 40 39 27 18 17 13 28 39 36 28 20 32 40 40 35 40 39 28 25 33 31 27 32 31 24 19 18
19 18 19 25 31 34 35 34 31 34 37 41 53 56 58 60 63 65 58 51 57 58 55 43 21 20 14 21 34 36 41 41 48 40 49 53 36 18 21 23 30 38 33 27 24 25 28
18 18 17 16 24 35 38 39 38 40 41 47 62 66 63 72 76 69 63 53 60 64 59 37 34 31 19 21 23 32 43 56 39 45 48 50 23 29 25 25 25 26 32 31 31 28 29
32 31 30 24 20 31 37 44 41 49 53 46 64 74 81 79 85 79 64 67 71 70 55 31 24 21 27 27 25 20 39 43 64 52 51 59 31 36 36 31 26 24 19 24 26 40 42
37 38 39 39 29 26 35 42 47 49 58 58 65 82 88 96 92 88 87 90 81 64 66 30 27 22 19 31 17 15 27 50 50 56 72 60 51 47 44 31 32 23 27 23 26 35 34
36 38 40 43 44 28 28 42 49 54 52 63 71 88 92 97 98 94 95 92 85 74 70 39 48 48 44 39 28 22 25 45 51 72 77 72 56 64 43 37 38 31 37 30 29 34 48
43 44 44 45 44 45 29 34 47 50 49 55 70 79 89 90 96 94 90 85 86 83 52 51 59 58 60 54 50 41 32 39 60 67 77 57 53 52 55 55 44 45 44 54 56 52 47
43 44 46 47 47 47 42 31 43 53 55 53 57 74 84 83 87 95 86 82 88 57 49 53 66 68 68 72 62 60 53 45 45 58 54 57 59 45 43 50 44 46 51 64 66 57 42
41 43 43 44 47 47 51 37 34 49 53 55 54 65 80 85 82 87 78 86 74 62 54 59 73 69 79 86 81 69 78 70 46 57 93 89 74 39 50 52 52 51 60 43 61 51 59
36 37 41 42 47 45 49 45 36 43 53 56 52 65 74 80 86 91 92 82 72 71 70 71 77 69 72 73 76 80 85 92 82 84 84 82 88 55 50 52 54 64 52 68 73 86 79
33 35 38 40 45 45 46 48 40 40 53 55 56 68 73 82 88 96 94 84 75 69 69 76 66 62 69 75 74 78 86 84 98 93 89 89 98 62 72 70 59 55 58 64 65 77 92
31 33 36 40 44 45 50 50 45 45 49 59 62 76 82 93 98 93 89 78 62 58 57 58 54 49 60 66 70 74 82 79 93 95 98 97 91 85 78 65 66 67 66 64 71 73 77
33 32 35 39 43 46 52 55 50 49 58 60 72 73 75 86 95 96 85 74 64 56 56 53 53 45 43 53 66 62 66 67 80 88 96 91 95 81 59 67 73 85 79 77 80 90 78
34 33 34 38 40 45 49 52 54 53 61 62 69 76 74 76 79 82 78 74 76 72 68 65 58 55 54 47 51 66 63 63 67 74 76 89 95 92 91 81 82 87 86 86 89 98 92
33 35 36 36 39 40 46 51 55 57 60 65 70 74 76 76 74 73 71 63 64 66 66 69 72 74 73 68 69 61 63 68 71 81 85 91 96 92 85 71 82 86 77 81 90 88 97
34 34 37 38 39 41 42 49 56 62 62 65 71 75 75 77 78 82 87 91 84 75 80 77 78 72 79 76 71 64 69 69 78 76 85 95 91 91 92 83 86 84 81 69 77 73 78
37 37 38 39 40 43 46 48 58 67 68 65 69 75 80 79 82 83 82 81 83 87 85 90 92 89 83 79 81 76 67 62 64 80 84 95 98 98 90 72 81 94 58 64 67 62 61
43 39 37 41 43 42 45 48 52 63 74 75 78 83 88 78 82 81 77 78 74 76 83 80 85 87 80 90 88 78 66 58 58 59 62 77 89 95 91 84 95 56 50 53 60 60 63
45 45 43 39 42 45 45 47 49 52 62 80 86 92 92 86 82 80 85 84 80 75 74 77 73 79 83 83 89 95 77 71 60 52 54 58 66 79 78 70 62 50 43 44 43 45 56
45 46 47 45 43 42 44 45 46 48 49 53 69 89 93 89 86 87 88 86 87 83 78 78 80 84 84 92 92 90 87 72 65 52 50 62 69 82 82 86 87 49 37 39 39 54 45
41 43 45 46 46 46 44 43 44 47 47 45 47 64 80 85 79 85 84 85 87 86 85 82 81 84 90 96 97 95 89 72 74 58 61 68 76 89 85 91 76 44 36 36 66 46 26
34 38 42 42 45 45 45 45 44 44 46 46 48 62 72 73 73 78 78 84 84 88 89 83 92 86 92 96 93 89 88 78 72 58 68 71 80 71 77 87 80 28 30 56 34 36 30
35 33 32 35 39 43 45 46 45 45 44 46 37 43 53 65 55 56 57 56 69 70 84 90 94 95 98 99 97 96 91 86 80 85 74 76 74 75 83 71 55 47 58 47 53 49 46

GFSGBSN_prec_cthk_222.txt.gz
RH
22 25 25 24 26 28 29 30 28 27 26 27 28 30 30 36 35 36 27 19 14 13 17 26 30 33 49 61 53 42 36 30 23 17 14 15 14 18 19 15 12 16 14 14 12 11 11
26 26 27 28 27 27 25 24 23 22 22 21 20 21 22 28 41 42 40 28 20 15 12 11 17 23 28 38 42 52 46 40 35 31 29 26 19 14 16 17 17 14 14 14 14 13 12
19 20 21 21 20 19 19 19 19 19 19 18 18 17 18 20 28 44 48 42 31 21 16 12 11 18 25 22 27 25 43 43 45 42 32 31 32 30 27 19 16 19 20 16 14 13 14
11 10 10 11 12 13 16 17 16 14 13 13 13 12 16 18 19 37 45 47 39 30 21 17 14 14 21 21 17 15 32 38 44 43 50 40 37 32 30 27 23 20 20 23 15 15 15
19 19 17 15 15 15 18 16 19 19 20 20 19 16 16 21 23 34 45 48 41 37 29 23 18 17 19 11 10 10 12 24 36 37 37 47 53 43 36 36 37 28 23 22 17 15 16
16 16 17 19 20 19 21 25 24 22 23 24 27 27 27 38 41 43 48 49 42 39 32 31 23 28 17 12 11 11 9 14 27 35 38 34 42 47 47 45 38 35 35 30 25 18 15
14 13 12 11 15 22 25 25 23 23 26 29 31 37 45 50 59 61 56 61 44 41 37 27 20 17 31 36 29 25 22 21 29 35 44 37 38 34 27 39 43 36 33 31 28 28 31
19 18 18 16 14 15 22 27 29 29 32 35 35 42 54 54 53 60 64 59 61 65 55 44 28 25 17 29 34 37 31 36 34 44 47 52 40 21 23 23 32 42 46 39 32 30 28
30 29 29 26 23 17 21 26 28 31 36 44 44 47 59 64 63 61 75 72 61 65 61 41 32 29 27 20 26 33 35 36 39 48 49 52 24 29 32 30 28 24 26 27 31 31 31
26 27 30 31 30 28 21 24 28 36 39 44 49 54 74 75 76 82 83 72 75 73 57 31 28 25 25 28 30 13 33 42 51 52 59 64 41 39 42 36 32 30 20 22 23 36 37
31 31 32 32 34 33 29 23 28 39 41 42 50 64 78 90 89 99 94 80 88 73 57 43 47 45 41 35 22 24 14 39 37 47 63 40 44 49 50 35 40 29 29 27 29 34 35
33 34 36 36 36 36 36 28 27 35 40 40 45 69 84 93 98 96 95 98 95 73 60 73 68 59 57 52 39 31 32 31 40 43 56 63 53 59 43 35 45 38 40 39 40 39 49
36 36 37 37 39 39 36 37 27 34 43 45 43 61 77 90 96 98 89 88 85 69 53 76 72 67 66 67 59 53 46 47 48 60 56 42 60 73 72 68 62 55 54 66 71 63 51
36 35 36 39 39 42 38 38 29 31 43 45 41 46 69 78 86 91 84 76 77 59 63 67 66 70 90 78 71 65 64 57 53 62 71 67 65 60 59 68 67 67 62 71 82 56 40
30 31 33 36 40 43 40 39 34 29 39 44 44 41 61 75 79 82 76 77 70 68 69 59 58 70 87 83 76 67 82 83 87 85 85 88 63 43 62 66 71 69 81 57 73 66 75
28 27 30 33 36 40 41 40 38 30 35 46 46 44 59 74 77 78 77 78 75 73 68 57 60 65 78 77 80 79 91 92 93 88 89 92 81 54 58 75 67 63 50 75 78 89 93
29 28 28 32 35 39 39 43 42 34 34 45 48 52 60 69 76 81 89 85 78 75 71 64 59 64 70 73 74 78 80 78 90 86 83 90 88 60 51 62 48 55 69 76 80 85 81
29 28 29 31 35 37 39 46 45 40 39 42 51 56 69 92 90 90 87 78 69 61 56 53 50 53 56 60 68 67 73 70 76 79 87 94 86 77 66 66 70 79 81 87 98 87 95
30 30 30 31 35 37 40 46 50 46 43 50 53 62 66 71 80 89 84 78 72 65 58 55 53 48 48 55 66 60 58 60 69 77 81 83 90 77 56 68 75 95 97 96 96 98 98
31 32 31 32 33 36 40 42 46 52 49 52 56 60 65 70 72 77 75 66 66 65 69 72 69 62 62 62 62 66 67 65 71 78 74 81 88 83 81 70 73 81 86 93 97 96 96
34 33 33 33 34 36 37 41 48 55 59 57 57 62 66 70 74 75 75 70 70 73 66 66 64 68 71 76 73 73 69 70 70 73 83 95 94 88 83 76 73 74 78 82 85 87 97
39 37 37 35 35 37 39 39 44 53 62 64 61 65 70 72 73 75 78 83 81 80 82 81 92 94 85 85 84 82 86 81 76 72 85 98 91 88 85 78 84 83 80 80 81 79 76
42 42 40 40 37 37 42 44 44 49 58 67 68 67 71 68 73 76 75 72 72 78 76 79 87 90 93 88 84 89 86 86 84 79 73 87 88 86 83 82 85 95 57 63 65 61 60
42 44 46 42 42 40 40 44 48 50 53 63 73 80 82 76 78 77 74 78 74 74 76 68 75 79 72 73 76 74 70 68 79 64 66 74 73 81 80 77 94 58 52 52 49 45 48
40 43 47 49 46 44 43 43 47 51 54 55 66 74 83 82 79 79 83 79 75 74 75 72 63 70 76 80 82 78 69 63 61 59 61 67 78 88 90 74 59 52 39 40 44 42 44
37 39 44 49 51 50 48 43 44 47 51 51 52 63 67 72 79 85 85 82 82 78 75 73 75 80 86 91 93 92 86 69 66 60 60 69 77 94 94 88 83 44 31 28 35 63 43
35 35 37 41 46 50 50 50 46 44 47 52 50 56 66 65 49 57 70 78 80 80 79 75 77 85 89 95 94 90 87 77 81 72 71 80 85 84 80 90 71 27 25 49 80 54 35
37 35 33 33 37 42 46 48 49 49 47 51 49 52 60 61 48 45 46 57 73 67 70 66 77 74 88 97 97 94 90 84 81 74 74 75 88 87 89 91 74 43 47 70 54 54 50
40 40 38 35 33 31 34 40 43 48 51 53 52 52 58 60 43 37 33 30 39 40 64 73 77 82 94 97 96 95 92 89 89 89 78 84 78 85 83 69 51 52 60 59 62 67 61

GFSGBSN_prec_cthk_228.txt.gz
RH
20 19 17 16 16 13 13 10 8 8 8 6 6 6 6 6 6 9 13 16 28 40 39 29 17 16 22 30 30 51 54 48 49 40 24 15 10 12 20 20 17 18 15 13 11 11 11
11 10 9 9 9 9 9 9 9 8 8 8 9 9 9 9 8 7 7 10 15 30 45 40 31 22 17 27 22 21 44 50 53 54 49 30 17 13 16 18 20 17 17 14 12 10 10
12 12 12 12 12 12 11 11 12 15 11 11 11 11 12 13 12 11 11 10 11 21 41 45 40 33 27 16 19 20 21 38 48 60 57 48 33 30 22 18 15 18 21 18 14 12 11
15 13 13 13 13 12 13 16 18 17 14 13 13 13 14 15 17 18 18 18 15 20 29 39 41 41 34 20 16 12 22 25 35 46 62 59 49 46 43 29 22 22 21 24 13 12 13
12 11 10 9 9 9 10 14 16 14 14 14 16 17 18 19 20 21 22 26 29 31 38 43 40 38 35 24 18 13 10 14 27 38 49 60 62 52 42 41 38 30 29 25 18 15 16
17 17 16 16 15 14 12 16 16 14 15 15 17 19 22 23 23 25 26 28 37 42 42 45 44 38 25 25 25 27 21 13 13 30 49 52 57 59 51 47 44 40 39 29 32 23 19
23 23 21 19 20 19 18 17 17 16 16 18 19 21 24 26 27 35 38 39 44 51 45 41 44 34 28 35 29 33 32 32 19 21 40 52 59 51 41 45 43 42 42 38 32 29 29
20 20 20 19 21 23 22 21 16 17 16 20 20 22 25 30 43 54 59 61 67 74 70 50 45 44 34 33 38 36 35 40 34 29 30 56 54 33 38 45 52 54 50 47 46 39 33
22 23 24 24 25 24 24 25 22 17 17 19 21 23 27 39 54 74 74 74 77 78 80 69 56 55 45 38 32 39 40 49 53 38 31 38 28 40 43 40 44 45 48 47 53 49 44
25 25 25 25 26 27 27 26 25 19 18 20 24 25 29 45 64 84 87 88 93 98 84 85 69 66 61 55 39 38 41 43 49 56 39 36 23 35 37 37 36 40 33 44 49 51 54
24 25 28 28 28 30 29 28 26 23 19 22 26 26 30 47 69 89 98 91 94 97 95 95 85 69 83 68 60 41 41 43 44 63 66 39 36 34 50 34 38 31 33 36 39 40 46
24 24 26 27 28 29 30 30 27 26 19 22 26 27 31 49 68 85 95 94 89 82 94 89 80 79 79 78 61 57 46 41 42 45 67 56 50 47 34 44 42 38 44 46 46 50 58
23 22 22 24 28 29 31 30 26 27 20 22 27 29 32 46 61 76 84 86 77 80 77 74 71 77 73 71 64 72 73 57 58 54 47 41 61 57 55 56 51 61 58 70 77 77 53
23 22 22 24 26 28 30 30 26 27 22 22 27 29 31 44 56 67 80 77 81 77 75 65 67 71 68 66 68 83 89 81 68 60 58 57 65 65 52 53 55 56 64 69 81 67 48
25 24 23 24 26 29 30 30 28 28 23 22 27 30 35 42 49 60 64 70 78 76 71 63 59 60 59 62 65 75 95 92 87 70 69 65 61 51 60 58 61 57 76 50 73 64 72
25 27 26 26 26 29 31 30 30 28 25 22 27 31 37 41 46 52 55 68 74 69 63 61 60 56 57 61 60 71 75 91 87 78 68 68 64 51 46 54 60 69 59 83 93 90 83
23 27 29 28 28 29 31 32 33 30 28 26 28 32 39 46 48 50 61 65 62 58 58 58 57 58 58 58 60 67 79 79 77 76 73 72 66 50 53 73 70 71 74 89 96 97 85
24 26 29 31 30 30 31 33 35 34 32 30 32 35 37 39 48 57 61 63 62 57 54 57 58 56 56 58 57 61 76 68 75 77 81 78 75 72 57 60 71 87 80 91 98 87 98
26 29 29 33 31 31 32 33 35 38 35 33 37 36 41 42 48 52 56 61 56 58 59 59 63 66 62 64 64 64 65 66 72 80 85 84 84 79 57 66 81 98 97 90 94 97 90
29 31 32 34 35 32 33 33 34 38 40 40 39 42 43 46 52 53 55 58 58 53 54 58 62 64 74 80 76 73 70 69 68 67 73 86 88 82 82 74 74 76 85 89 97 97 97
28 33 35 36 38 35 35 34 36 37 43 45 45 45 49 53 55 59 59 58 60 61 57 59 63 66 79 90 89 82 76 73 75 75 76 82 88 84 84 78 81 79 77 80 86 85 93
26 30 37 38 41 40 39 39 37 39 43 48 49 50 54 54 56 60 64 65 65 64 66 66 69 73 74 80 78 80 78 82 76 72 74 81 80 81 84 73 81 87 74 64 72 79 80
24 29 34 40 43 45 42 43 42 42 44 49 52 54 57 54 59 63 63 65 65 66 63 67 70 71 72 71 68 69 72 69 67 69 71 73 75 81 73 64 69 80 51 61 64 62 61
20 27 32 38 44 50 46 46 47 49 48 52 56 58 61 56 56 58 61 65 67 75 76 71 73 77 64 66 68 66 67 66 65 62 67 69 78 84 71 75 84 40 38 37 41 42 47
19 23 29 34 42 50 53 49 50 51 52 53 57 61 64 62 55 53 54 57 59 69 74 71 70 75 78 66 69 72 71 67 63 63 68 75 82 82 84 81 53 35 33 41 48 44 41
20 25 27 30 40 47 53 52 53 53 54 55 55 60 61 64 58 51 50 52 58 57 52 52 60 69 67 71 72 81 82 74 76 72 74 84 89 91 90 87 75 38 35 44 60 60 27
23 28 28 28 36 43 48 49 52 55 56 60 59 61 63 59 55 54 53 50 48 52 54 49 46 50 59 71 79 78 79 77 84 81 82 91 93 91 90 93 69 46 51 60 66 43 45
30 35 31 31 35 40 43 45 45 49 51 56 58 61 63 63 52 57 57 57 53 53 55 50 58 46 50 60 78 72 80 84 85 77 78 83 95 92 95 95 78 55 59 68 56 49 53
34 38 39 41 41 45 47 45 41 43 45 50 53 56 60 64 50 51 57 54 54 53 63 63 59 59 55 62 63 73 74 82 81 78 75 86 83 91 90 71 61 66 68 69 70 67 60

GFSGBSN_prec_cthk_231.txt.gz
RH
13 11 9 8 8 8 8 8 7 7 7 8 8 8 8 8 8 7 6 6 6 9 14 31 36 32 21 17 21 32 40 46 57 60 47 29 19 13 14 17 20 21 18 14 12 11 11
9 9 10 10 10 10 10 10 10 10 9 9 9 9 9 9 9 10 10 10 10 8 9 18 31 36 36 28 13 15 28 40 47 61 60 48 30 17 15 14 16 19 19 16 14 12 12
14 11 11 10 8 8 12 13 14 12 11 10 10 11 11 11 11 12 12 13 13 15 12 14 31 36 40 34 21 21 21 30 38 48 64 63 48 32 22 19 16 15 18 20 17 14 12
11 11 10 10 10 9 8 9 10 11 11 11 11 12 12 13 13 14 14 14 16 19 21 23 27 33 36 31 30 22 17 24 28 37 46 64 62 52 44 28 23 21 20 16 12 13 13
15 15 15 14 14 14 12 11 10 11 12 12 13 13 14 14 16 15 16 19 22 23 29 33 37 36 31 24 26 26 22 15 26 36 43 54 63 64 52 49 39 32 21 22 14 13 14
22 22 20 17 17 17 16 16 13 12 12 13 14 15 15 16 18 22 29 33 32 30 34 40 45 41 25 26 22 26 31 30 16 29 40 53 55 60 61 52 40 37 40 29 26 17 15
20 18 18 18 19 22 23 22 18 14 13 14 15 16 16 18 23 31 41 45 45 43 50 64 51 40 34 38 27 23 39 41 28 25 32 46 60 49 40 50 46 43 38 40 38 29 25
22 22 21 23 24 24 23 25 23 19 15 15 17 18 19 21 28 40 52 59 70 71 66 69 64 57 53 53 44 35 33 41 40 28 31 44 53 35 40 43 53 54 52 49 44 40 36
25 23 22 25 26 26 28 26 23 21 17 16 18 19 20 24 35 51 65 72 79 88 95 85 80 78 68 61 47 44 38 50 51 39 33 32 25 43 51 46 44 46 52 50 47 47 43
23 22 24 26 26 26 28 27 25 22 19 16 19 20 21 26 38 52 69 76 80 90 83 92 94 88 80 74 58 40 43 41 53 58 42 35 24 44 54 50 43 44 39 48 56 64 58
22 21 22 22 24 26 28 28 26 22 21 17 20 22 22 29 38 53 72 76 78 83 93 80 85 87 83 84 66 49 48 48 41 58 65 36 36 27 46 44 50 39 42 43 46 51 61
23 22 22 23 23 26 27 29 27 23 22 18 20 23 22 31 38 54 69 69 68 65 88 75 72 81 75 78 77 70 57 53 49 43 56 61 55 44 26 37 47 42 45 45 47 52 54
21 23 24 23 24 26 27 28 27 24 23 18 21 23 23 30 37 46 59 64 68 76 69 62 65 66 66 66 79 90 79 64 62 55 42 47 59 61 52 41 41 49 55 64 76 70 44
20 22 23 25 26 26 27 27 26 24 23 19 21 23 26 31 35 41 51 55 72 72 70 57 58 54 57 55 69 88 87 83 65 60 67 59 50 63 66 66 51 52 54 55 63 53 42
18 21 23 24 27 28 28 28 26 26 24 21 21 23 28 31 34 38 40 58 71 71 65 60 52 49 52 47 51 73 91 89 81 62 64 62 62 64 69 69 78 72 74 53 59 55 70
18 19 23 24 27 30 29 28 28 28 25 23 22 24 29 35 35 38 42 51 59 59 59 55 51 51 51 47 47 57 76 82 80 74 65 62 57 51 62 64 70 77 77 84 83 91 85
20 19 21 25 27 30 31 30 30 29 27 26 26 25 30 31 37 39 50 54 55 49 54 54 52 53 49 52 50 58 68 77 77 78 75 70 65 44 45 73 81 85 80 82 93 84 82
24 20 22 24 27 30 32 32 31 32 29 28 29 34 29 31 36 47 52 54 53 49 48 54 57 58 60 55 54 56 61 61 74 77 80 79 70 65 52 52 59 82 92 96 98 95 97
24 22 23 24 27 30 33 34 33 33 32 32 31 33 35 36 42 46 47 53 53 51 50 50 57 62 63 64 66 58 60 59 70 71 76 78 79 74 58 73 70 77 90 89 94 95 88
22 27 23 26 28 29 33 35 35 35 34 36 36 39 39 41 47 48 53 53 55 52 53 53 56 58 66 72 73 68 67 64 63 67 69 78 78 75 71 68 68 67 67 84 92 94 85
23 25 27 27 31 31 33 38 37 37 38 39 40 41 45 45 49 51 53 56 59 59 56 57 58 61 70 72 69 74 67 67 67 69 72 78 83 78 70 64 69 69 67 68 77 79 87
22 26 27 29 31 37 35 40 41 40 42 42 44 43 50 51 53 52 53 58 60 62 64 63 68 68 69 71 70 69 65 69 67 64 68 74 71 78 73 63 64 66 56 55 57 61 70
18 25 27 29 33 40 39 42 45 44 44 45 46 47 49 50 53 55 55 54 56 59 61 68 70 74 71 66 65 65 67 66 64 66 67 71 74 74 65 57 61 65 40 41 42 43 50
20 23 27 29 33 42 45 46 49 50 48 50 51 54 55 54 53 51 50 52 54 60 63 64 72 76 64 71 71 58 54 57 62 61 69 72 83 86 74 69 69 34 34 35 38 35 40
22 23 24 28 31 42 46 47 52 53 52 54 55 57 60 58 53 51 52 52 50 49 52 52 49 58 65 67 67 69 63 61 58 61 72 80 90 93 86 76 52 43 40 42 52 37 27
25 26 25 22 29 40 44 48 53 57 56 54 53 56 60 63 58 54 56 55 55 51 49 44 46 52 55 59 62 67 66 62 63 62 72 81 92 95 93 91 74 48 52 58 56 42 51
29 29 27 26 25 37 42 45 50 54 59 58 57 56 58 60 54 54 57 59 58 58 55 49 46 47 51 57 64 63 53 55 64 65 76 92 93 94 94 94 61 55 59 64 70 56 50
30 31 30 27 26 32 35 43 47 51 54 57 57 57 60 56 54 51 53 57 61 64 64 56 58 49 56 64 66 60 67 55 68 62 70 81 94 93 90 89 78 59 65 70 63 61 60
32 32 32 34 34 39 40 43 45 47 51 52 54 54 58 60 53 50 48 52 53 55 62 65 59 56 57 65 69 73 69 65 54 64 54 68 66 71 78 69 63 70 75 77 76 66 65